Theta_e
311 311 312 312 312 313 313 312 312 311 311 311 312 313 312 311 311 308 316 324 313 311 317 320 321 316 317 317 315 323 320 320 316 308 308 308 308 309 309 310 308 306 305 304 305 301 302 320 318 310 312 313 315 311
311 311 311 311 312 312 313 313 312 312 310 310 311 312 312 312 311 310 313 319 316 312 317 323 326 325 323 324 322 322 320 324 325 318 313 312 308 311 310 304 314 304 310 306 308 307 317 320 319 322 319 316 315 311
311 312 311 311 312 312 313 313 312 312 311 311 311 312 312 311 311 309 309 316 314 315 317 318 319 323 323 327 332 319 324 326 326 333 324 312 306 313 306 308 310 314 317 309 312 316 318 324 323 324 323 320 321 319
309 310 311 311 312 312 313 313 313 312 312 311 311 311 311 311 310 310 309 313 312 310 308 315 322 321 325 326 328 330 327 330 331 329 322 314 309 315 309 309 307 313 315 313 313 317 321 323 324 324 322 323 323 322
307 310 310 311 312 312 312 312 312 311 311 312 312 312 311 310 309 308 312 314 312 308 305 308 319 321 322 321 321 323 323 325 322 318 315 311 315 311 309 308 304 314 313 310 310 317 318 319 321 325 322 323 323 321
307 309 310 310 311 311 311 311 311 311 311 312 312 311 310 309 308 311 312 310 305 313 307 305 318 319 320 321 318 317 320 320 320 317 316 319 321 316 307 303 314 317 318 320 317 320 319 321 322 323 322 326 324 323
307 308 310 310 310 310 310 310 310 311 311 311 311 310 309 309 307 307 305 307 304 312 311 306 307 315 317 316 316 316 318 318 317 317 314 316 315 316 308 304 314 317 316 315 315 312 314 319 317 321 323 324 324 326
307 307 309 310 309 309 309 310 310 311 311 310 310 309 309 307 308 308 312 309 306 312 313 303 305 310 318 311 311 315 312 317 317 314 314 312 316 313 305 312 314 316 315 314 313 312 312 315 317 316 317 320 319 323
307 307 308 309 309 309 309 310 310 310 310 310 309 308 308 308 307 311 311 310 313 312 307 307 301 302 314 310 311 312 314 308 317 309 309 312 308 305 311 313 312 314 311 310 311 312 311 311 316 316 318 318 319 322
306 307 307 308 309 309 309 309 310 310 310 309 307 309 306 310 311 311 311 309 310 312 311 302 307 303 309 309 308 307 310 305 302 308 311 308 306 313 317 316 315 314 313 312 308 310 312 312 315 314 316 319 322 323
306 306 307 308 309 309 308 309 309 308 307 308 307 307 312 309 309 308 305 304 305 303 306 305 304 303 313 305 305 308 306 305 298 301 307 304 302 310 317 317 316 314 313 312 311 314 313 312 316 318 319 320 320 319
306 306 306 308 309 309 309 308 308 306 310 304 302 305 311 307 304 302 299 303 302 299 305 302 304 307 313 316 309 309 304 305 299 308 302 298 305 313 315 315 316 316 315 314 315 313 313 318 319 319 319 320 321 321
305 306 306 307 308 308 308 308 307 308 307 312 305 304 302 302 292 294 293 297 298 304 307 306 303 309 310 312 308 306 302 299 307 301 299 305 314 315 314 314 313 313 313 314 314 314 317 317 320 321 320 321 322 322
305 306 306 306 307 308 308 307 308 308 304 303 298 288 295 293 296 297 298 300 305 307 307 307 306 304 308 305 304 302 304 304 299 296 297 308 313 313 314 314 312 311 313 313 315 319 319 320 321 322 322 322 322 320
305 305 306 306 307 308 307 307 307 308 304 299 300 290 294 300 302 301 303 303 308 309 307 304 306 306 304 303 303 302 300 297 298 297 303 314 314 315 315 316 314 313 312 316 318 319 320 320 318 318 319 318 318 318
305 304 302 305 307 307 307 307 306 308 302 297 298 297 302 299 299 301 301 305 308 307 308 307 304 301 300 301 300 299 297 295 300 309 314 317 317 317 318 320 320 321 320 319 320 320 319 318 316 316 316 316 316 315
303 299 304 305 306 306 306 304 303 299 296 294 293 300 300 301 300 304 306 307 310 306 301 303 299 299 303 299 298 301 298 301 312 315 318 320 319 318 319 319 319 319 318 317 317 317 316 317 316 313 309 310 314 312
299 304 305 305 305 303 300 301 299 297 292 295 294 299 303 305 304 306 308 309 306 305 305 302 306 300 297 297 296 301 305 310 319 319 320 321 320 319 319 317 318 318 317 317 316 316 315 314 312 311 309 308 307 307
302 304 305 305 304 299 295 296 299 292 294 297 299 300 303 304 307 308 310 310 310 310 307 305 301 298 299 305 308 309 313 317 317 318 320 321 320 319 319 318 317 316 315 314 313 311 311 311 309 309 306 305 303 304
303 304 304 304 305 296 293 295 301 297 294 296 298 298 300 301 304 305 307 308 307 305 302 302 301 304 306 310 313 314 316 318 316 315 315 317 319 319 317 316 315 316 314 313 311 305 311 311 309 307 304 303 303 302
302 303 303 304 301 299 296 296 295 297 297 296 299 298 298 302 300 301 302 308 304 302 300 304 305 308 314 314 315 314 313 317 315 314 314 313 316 316 316 317 315 314 312 310 308 303 305 306 306 306 304 304 303 303
300 303 301 301 296 296 295 299 298 300 297 297 298 298 296 295 297 300 303 302 302 304 306 306 306 307 308 310 311 314 316 316 317 314 309 309 314 314 313 314 313 312 312 310 308 306 305 305 305 305 303 302 302 303
302 301 299 297 293 292 292 302 295 297 293 294 296 295 295 296 298 302 298 301 302 307 309 309 310 313 313 314 314 314 315 314 313 314 314 315 315 316 315 314 314 312 310 308 307 306 304 300 301 302 303 302 302 301
302 296 293 292 291 289 295 293 297 296 295 294 293 291 293 295 299 297 295 298 301 304 304 308 310 309 310 312 310 310 312 315 313 313 315 314 312 314 314 312 309 307 307 307 307 306 305 304 298 302 302 301 300 299
288 289 290 286 294 292 290 290 291 291 290 292 292 292 294 299 293 293 294 297 299 301 302 304 304 305 304 306 309 310 313 312 311 310 313 314 314 312 312 309 308 307 308 306 305 304 303 303 302 302 301 300 298 298
284 289 289 290 292 291 290 288 289 290 291 291 292 296 298 294 291 291 295 298 300 302 305 306 306 305 304 306 307 307 310 314 313 311 312 314 313 311 309 305 304 304 308 307 305 304 303 302 301 301 300 299 290 299
284 289 293 298 296 295 292 293 294 292 290 289 292 293 294 289 289 295 301 305 306 308 309 308 309 308 307 308 309 310 311 313 311 312 314 313 308 308 307 305 306 306 308 307 306 304 302 302 301 301 300 300 300 300
291 293 290 293 294 296 291 291 291 290 292 295 296 290 289 290 293 302 305 308 310 311 310 311 311 309 309 312 311 311 311 311 310 311 309 309 309 308 307 304 302 295 303 304 305 304 303 302 301 301 300 299 299 302
292 294 294 291 292 294 293 291 292 295 299 299 294 293 296 302 303 305 307 307 308 307 306 306 308 311 310 311 310 311 311 310 307 304 303 301 303 303 306 306 306 306 304 302 287 295 303 301 301 300 301 300 300 301
292 298 292 291 289 289 293 296 295 298 300 301 301 301 301 302 307 310 307 307 303 302 305 306 306 307 307 308 307 307 309 307 307 305 303 302 303 306 307 307 306 306 306 304 301 299 288 297 292 300 299 299 299 298
297 296 293 292 291 293 296 300 302 301 300 299 301 299 299 302 304 307 307 309 307 306 306 305 305 307 308 306 306 304 303 307 309 309 309 307 308 307 307 308 307 305 304 304 302 301 299 299 298 297 298 298 297 296
295 293 291 288 291 297 300 299 298 297 297 297 297 299 299 298 297 302 306 307 306 304 300 303 305 306 309 309 310 309 297 307 306 307 309 307 307 306 305 305 305 305 303 302 301 300 299 298 297 297 297 296 297 297
295 295 294 293 293 293 297 297 295 294 296 295 296 297 297 296 291 301 307 308 306 306 306 306 309 309 310 308 306 302 296 297 292 288 288 289 291 297 304 304 304 303 302 300 299 299 299 299 297 298 297 297 297 297
Wind_Speed
12 11 10 10 8 6 5 4 5 6 7 10 12 15 17 20 20 9 4 4 3 4 5 5 6 5 5 4 3 6 5 5 1 1 0 5 5 4 4 6 5 6 4 5 5 2 1 3 2 3 7 4 8 5
12 11 10 9 8 6 4 3 3 5 8 10 13 15 17 18 20 17 3 5 3 3 5 2 1 5 5 2 3 2 3 4 4 2 5 6 3 4 6 3 3 1 7 6 6 4 8 3 7 6 8 8 6 7
7 10 10 9 8 6 4 2 2 5 7 9 12 14 16 16 17 11 4 4 4 3 5 2 2 4 4 2 5 4 3 3 7 3 1 4 4 6 7 5 5 8 4 4 6 4 7 8 4 8 7 7 8 6
3 7 8 9 7 6 5 2 1 4 6 9 10 12 14 16 16 12 3 4 2 3 3 1 2 2 4 5 2 5 9 10 6 3 4 4 5 5 6 7 4 7 12 11 3 8 6 4 7 10 7 10 9 9
5 6 7 6 9 7 6 3 0 4 6 8 11 13 16 17 19 9 4 3 4 2 3 5 7 3 1 4 6 3 4 6 4 4 1 1 2 4 1 4 2 2 2 4 3 1 6 2 8 4 5 3 10 9
7 6 6 6 7 6 5 3 1 5 7 9 11 13 15 16 19 3 2 3 6 4 2 4 2 5 5 2 6 7 5 3 3 2 2 3 2 4 3 2 2 4 6 7 5 5 4 2 4 4 3 5 8 10
9 6 6 7 6 6 5 4 4 6 8 9 11 13 15 13 5 2 1 4 8 3 2 4 2 1 3 2 3 4 5 2 2 4 4 2 2 4 2 3 1 8 8 7 6 6 3 2 1 7 5 5 2 8
10 9 7 8 7 6 5 4 5 5 7 10 12 14 16 20 11 4 1 5 2 3 2 3 4 3 3 3 1 3 3 3 3 2 2 2 2 2 1 2 5 4 8 9 7 6 1 4 2 5 4 2 5 2
10 10 8 7 7 6 5 5 4 5 8 10 13 17 6 2 2 1 5 3 3 1 2 3 3 1 3 0 1 3 2 3 2 2 3 5 2 1 3 2 1 4 4 5 5 5 6 6 8 6 4 3 3 6
10 9 9 8 7 7 6 5 5 6 7 10 4 3 3 1 4 3 1 2 3 3 3 3 3 3 2 3 2 2 1 2 2 6 2 4 4 7 3 5 4 6 5 6 4 4 5 7 8 6 6 4 6 11
11 10 9 8 8 7 6 6 4 5 5 3 3 1 0 1 1 2 3 3 4 4 4 4 3 2 3 2 1 2 2 3 2 6 6 4 2 4 6 7 7 4 2 2 2 4 5 4 2 10 12 11 10 9
11 10 10 9 9 8 6 5 2 2 3 4 4 6 4 2 2 4 3 3 5 5 5 4 4 3 2 2 1 3 2 2 3 2 3 1 3 2 7 7 7 5 4 6 6 5 6 6 8 9 8 9 9 9
12 11 10 10 9 8 6 5 6 8 9 3 3 4 2 2 2 5 5 4 4 2 3 2 1 1 3 1 2 2 3 4 2 1 3 3 4 5 4 2 5 3 4 5 3 5 9 9 11 11 11 9 11 11
13 11 10 9 9 8 6 4 3 3 3 3 4 3 5 4 5 5 5 4 4 2 4 3 2 1 2 0 2 3 4 1 3 4 3 3 4 5 2 2 5 3 4 6 10 16 16 15 14 15 13 11 11 9
13 11 10 8 9 9 7 4 2 2 3 3 4 5 6 6 6 6 8 5 2 4 5 3 0 3 3 3 4 2 3 4 5 5 3 3 5 3 3 4 5 6 2 8 12 13 14 14 13 12 10 8 9 8
14 10 6 11 10 10 9 5 2 1 1 2 4 5 6 6 8 7 7 3 2 3 2 1 2 4 5 4 4 5 4 4 4 4 4 3 3 4 5 7 8 9 9 9 10 12 12 11 10 8 8 8 7 7
14 4 13 14 12 12 6 2 1 3 2 2 5 6 7 8 8 9 2 4 2 3 3 2 4 5 4 3 4 3 5 5 4 5 4 6 5 5 7 8 9 9 10 10 10 10 9 8 9 9 9 7 7 6
6 10 21 18 11 6 1 1 2 4 6 7 5 5 5 5 8 9 6 6 4 1 1 3 3 2 3 3 2 6 5 1 7 8 6 6 6 6 6 7 7 8 7 7 7 7 7 8 7 5 7 7 6 7
3 11 20 19 7 4 2 2 3 4 7 5 8 7 4 6 7 8 5 2 3 3 2 2 3 2 3 2 5 6 6 7 8 6 5 6 5 6 7 8 8 8 8 6 7 5 5 7 6 5 5 5 3 4
4 20 20 15 6 2 2 3 3 4 4 6 6 5 3 3 6 9 8 1 2 1 2 3 3 3 2 3 4 3 3 5 6 3 4 3 3 6 6 6 5 6 6 6 5 3 4 4 5 5 5 4 4 4
4 9 13 7 4 1 3 4 7 4 4 3 6 7 4 1 4 9 8 4 2 3 3 4 4 2 3 2 3 3 4 6 3 5 2 5 4 5 4 4 6 4 4 4 4 3 7 5 5 5 4 4 3 4
3 11 4 2 3 6 5 4 4 3 4 4 6 6 3 5 7 9 10 6 6 5 3 4 4 3 3 4 3 3 3 6 6 4 5 8 5 5 5 5 4 4 5 4 5 7 6 5 5 5 5 4 6 5
5 3 3 4 3 4 6 4 4 3 4 7 6 9 6 7 10 8 5 5 7 5 5 6 7 5 2 4 5 3 4 1 3 4 4 5 4 5 5 4 5 5 5 5 6 8 6 7 5 3 4 5 4 4
5 5 5 7 7 5 5 5 4 3 2 7 10 15 10 9 7 8 10 10 9 7 5 6 4 4 4 3 2 4 3 4 3 4 4 5 4 4 6 4 7 7 6 7 7 6 5 5 2 2 5 4 5 3
3 3 2 5 6 6 7 7 7 5 7 5 9 3 3 3 6 10 13 10 9 8 8 6 5 6 7 6 6 7 8 6 5 5 4 4 3 5 5 5 7 6 6 7 6 6 4 3 3 4 4 4 2 1
4 6 7 10 8 6 7 8 8 9 9 11 6 3 2 3 4 6 8 8 6 6 5 4 1 2 5 5 2 2 5 6 4 3 3 4 6 7 7 10 8 4 4 7 6 6 5 4 3 2 1 3 4 2
4 6 6 6 3 5 5 6 6 7 8 6 4 6 3 8 8 5 3 3 3 3 3 2 3 4 3 5 5 5 5 6 4 3 2 3 9 9 7 4 4 6 8 9 6 5 3 3 2 2 4 4 4 3
3 4 4 4 6 4 6 6 6 5 2 3 3 7 4 2 1 3 4 5 6 5 3 5 2 3 4 3 3 3 3 4 6 7 5 6 2 9 10 8 7 15 9 6 6 6 6 5 4 4 3 2 2 4
4 3 4 6 3 1 3 4 6 3 1 2 4 3 3 3 2 2 3 3 4 7 4 2 3 4 4 3 3 2 4 4 3 4 2 7 6 3 6 8 7 6 7 6 6 7 7 5 3 3 4 3 4 4
3 4 3 5 9 7 5 5 5 6 5 1 1 3 3 4 2 4 4 2 2 4 7 4 1 6 5 5 4 3 1 4 4 3 5 5 2 4 1 4 6 7 6 8 8 5 5 4 2 3 2 3 3 2
4 4 3 4 5 7 8 7 4 6 5 6 5 5 4 3 4 5 4 4 5 4 4 4 4 1 6 6 6 6 3 2 3 7 10 7 9 9 7 3 4 5 5 7 10 6 5 4 4 4 3 2 2 3
5 6 4 4 5 7 6 3 3 4 5 7 7 5 3 4 6 3 3 4 5 6 5 3 3 3 3 5 6 6 7 5 5 4 7 5 7 8 7 5 5 6 6 5 5 5 5 5 4 4 3 3 3 4
5 6 5 5 4 5 6 4 4 4 6 8 8 7 7 5 7 3 2 4 6 5 4 5 3 3 6 7 6 6 7 7 9 4 5 9 7 5 5 6 5 5 7 6 5 4 4 6 4 4 4 4 2 2
Wind_Direction
168 162 162 165 163 146 120 87 58 33 16 4 1 359 1 356 360 3 285 67 61 313 294 356 14 22 349 6 41 328 348 350 107 342 84 92 41 10 31 4 349 103 14 333 357 345 57 253 18 164 192 127 122 114
169 165 170 171 173 158 145 117 46 30 13 3 2 357 360 353 357 354 324 346 304 207 268 318 35 45 22 51 118 302 264 357 306 332 66 91 124 25 334 325 286 321 179 188 153 230 248 156 147 149 142 146 155 144
134 163 163 174 177 164 160 135 33 15 9 359 357 354 350 344 354 2 294 307 322 276 290 194 84 73 19 34 147 65 338 339 325 329 287 133 132 134 180 231 126 290 163 242 150 231 202 144 145 152 164 152 153 149
165 141 153 179 174 171 170 163 34 357 356 350 347 340 338 341 343 349 306 345 2 305 279 273 209 97 33 346 304 164 163 250 251 263 260 139 141 179 185 227 110 197 151 213 75 357 40 36 171 181 181 149 144 152
186 174 154 157 179 177 168 162 11 334 336 333 335 336 335 338 332 311 244 51 19 34 315 303 324 108 58 317 318 319 279 257 269 295 342 54 95 94 117 59 1 80 226 108 174 202 121 354 29 7 82 139 165 160
186 185 168 162 153 163 173 179 250 311 318 323 327 327 326 335 333 286 183 67 18 8 310 318 349 187 214 255 322 291 270 260 247 290 337 77 76 99 95 137 322 116 95 126 158 126 107 348 344 303 249 228 191 162
175 176 179 172 173 184 201 233 265 284 299 308 313 315 317 326 326 325 3 282 355 296 270 305 274 144 0 334 281 331 328 298 52 304 16 97 59 72 80 126 351 83 95 76 78 76 15 83 298 334 19 33 208 179
174 174 181 167 169 179 193 217 247 268 285 296 304 310 309 302 271 275 264 230 244 283 296 286 274 109 317 285 35 340 318 346 354 289 10 41 18 65 24 111 55 69 84 74 52 49 7 298 306 305 333 9 10 271
176 172 169 158 159 171 186 195 231 262 280 299 310 301 297 227 260 83 175 173 232 271 312 314 288 14 264 149 8 347 30 330 265 55 329 45 339 176 237 177 26 343 93 112 48 10 343 330 284 229 132 37 10 3
172 169 163 161 161 171 186 198 231 265 294 315 297 230 236 47 299 292 123 191 207 189 230 250 293 286 31 55 327 352 182 247 236 233 120 150 228 243 202 182 125 91 62 40 22 344 349 345 330 259 162 49 61 47
170 167 163 164 164 170 189 211 237 304 291 233 241 324 14 24 278 232 249 205 185 205 204 230 227 269 309 121 229 203 274 252 217 259 142 178 273 262 273 158 119 124 164 286 267 292 297 293 323 83 75 74 74 67
168 168 167 166 167 172 190 212 205 254 352 305 291 281 282 243 247 229 215 215 222 218 181 177 220 199 334 24 69 273 230 306 283 327 53 85 249 125 88 122 148 172 183 244 242 251 292 61 95 93 88 73 66 59
167 166 166 168 173 172 182 214 242 304 319 253 215 235 160 239 174 220 201 190 200 261 123 151 128 99 12 31 261 244 225 257 305 208 204 194 173 89 83 118 136 140 257 275 248 206 112 88 73 82 80 69 65 55
164 163 166 166 172 169 177 215 281 305 271 258 198 320 196 230 217 223 230 225 211 151 140 141 107 151 188 22 263 276 220 243 253 187 248 178 159 133 207 174 120 155 55 3 54 97 93 87 78 70 67 66 69 62
158 160 162 167 166 167 171 189 244 260 352 295 322 212 207 242 248 227 245 252 287 102 124 100 123 173 197 246 191 293 229 213 216 206 190 171 136 149 85 53 67 121 155 90 95 91 87 84 82 77 70 66 62 54
150 129 186 158 166 160 158 183 222 104 72 329 255 262 273 226 253 254 231 237 103 128 111 128 226 189 230 219 201 229 202 220 233 146 154 122 98 92 80 69 74 70 77 87 89 95 93 88 87 84 70 73 85 80
164 174 159 153 155 142 114 5 230 186 199 224 248 245 262 263 263 291 243 131 106 106 193 214 239 202 244 190 241 264 225 250 127 122 117 103 98 93 94 86 80 77 78 86 92 92 94 90 83 73 61 28 65 50
199 149 147 145 139 98 75 316 221 198 216 229 253 262 250 282 303 320 307 116 101 173 213 250 305 270 262 285 269 249 297 293 124 124 118 110 103 96 95 96 89 88 84 79 88 84 96 95 88 97 80 51 39 25
226 153 148 143 123 110 141 169 246 219 218 245 233 266 310 318 300 288 314 25 59 34 317 279 232 241 262 347 15 12 8 112 118 115 105 99 96 107 101 96 93 90 89 90 85 88 82 98 94 85 76 58 27 19
346 145 147 144 128 88 183 203 215 254 248 202 233 247 255 262 310 309 307 322 100 71 262 250 202 240 62 16 54 31 22 111 97 73 101 118 120 114 113 112 107 106 94 86 96 105 123 93 77 79 64 44 49 26
69 148 136 151 181 55 264 223 209 221 257 269 198 204 222 25 309 295 289 282 238 220 220 273 292 319 53 53 70 14 7 15 185 120 238 169 144 119 108 99 127 137 152 179 153 132 86 92 90 68 52 72 13 335
105 135 123 193 178 164 247 246 272 291 206 243 186 201 193 188 246 254 267 254 234 232 226 252 275 287 319 310 306 146 59 360 350 109 166 143 137 139 157 160 168 209 214 148 123 104 98 88 71 62 49 28 32 24
165 137 131 170 184 213 250 196 229 240 230 198 226 213 216 209 215 226 236 246 253 247 227 246 268 280 324 313 332 330 135 28 316 307 165 160 156 163 153 167 185 218 131 103 96 106 108 117 76 67 75 60 38 23
267 194 166 180 190 231 213 197 219 215 266 236 198 213 218 210 218 221 230 229 244 255 255 241 228 247 232 205 272 281 282 193 241 286 256 163 171 181 176 156 109 91 92 92 93 91 93 101 141 135 89 75 61 19
147 223 203 224 209 230 193 186 206 229 206 285 244 205 230 225 235 227 220 223 231 237 246 252 247 252 245 249 209 227 236 241 219 224 258 192 133 80 94 99 103 117 118 114 113 116 118 116 99 97 104 114 143 340
221 213 209 203 198 185 194 195 200 215 234 221 232 219 183 64 297 255 235 239 239 219 217 194 173 311 276 253 217 357 335 296 213 218 239 205 172 159 164 143 135 138 112 110 118 125 129 125 138 121 95 104 127 340
223 238 194 238 178 168 214 222 217 211 217 226 219 240 236 218 196 228 254 350 21 7 348 311 131 107 72 30 34 26 0 350 34 92 46 65 88 76 71 77 101 146 121 112 112 124 139 140 130 103 92 62 46 28
257 308 294 186 160 217 253 252 235 239 240 316 207 213 234 254 237 53 36 16 2 8 31 101 62 56 64 74 67 61 22 10 18 5 46 54 332 102 105 92 73 71 73 72 90 95 84 73 51 37 78 124 79 57
218 248 280 266 271 190 200 252 256 252 204 224 239 256 313 52 50 329 35 10 5 327 292 255 144 143 124 114 94 81 95 65 48 110 221 92 293 57 112 115 125 125 125 118 64 59 101 87 80 65 37 57 86 55
209 147 223 248 235 221 221 230 246 260 291 8 285 322 315 298 318 120 144 124 70 303 284 280 209 177 180 176 152 123 32 106 67 158 161 181 135 357 115 162 169 168 142 127 126 126 86 136 107 159 124 78 66 360
131 185 221 239 261 258 256 260 277 284 278 278 291 276 238 262 286 279 261 218 206 247 266 275 284 270 162 175 167 147 185 220 245 268 236 199 190 185 178 180 102 80 86 101 133 150 145 127 105 98 99 100 258 273
179 198 200 227 253 252 256 239 230 226 240 253 249 249 248 265 253 245 242 245 226 233 233 236 293 282 141 166 172 159 170 199 107 289 280 114 105 119 113 98 93 92 101 99 108 124 123 109 124 143 148 192 233 258
195 205 219 257 250 234 209 207 220 243 232 229 234 229 212 210 224 250 278 238 235 233 218 238 210 144 95 103 111 109 88 87 69 64 96 71 71 105 140 142 129 131 132 129 119 131 130 130 168 180 177 207 208 67